FW1542 Weather Reports


time (UTC)temp
C
wind
direction
speed
KPH
gust
KPH
rain 1hr
cm
rain 24hr
cm
rain mn
cm
humidity
%
barometer
mb
20260505101549 20 183 4.8 14.5 0.00 0.00 0.00 93 1007.4
20260505101520 20 173 3.2 12.9 0.00 0.00 0.00 94 1009.9
20260505100040 20 0 3.2 14.5 0.00 0.00 0.00 93 1007.5
20260505100018 20 184 3.2 12.9 0.00 0.00 0.00 93 1009.9
20260505094544 20 221 6.4 19.3 0.00 0.00 0.00 93 1007.6
20260505094514 20 189 6.4 16.1 0.00 0.00 0.00 93 1010.1
20260505093043 20 171 4.8 16.1 0.00 0.00 0.00 92 1007.5
20260505093013 20 160 4.8 14.5 0.00 0.00 0.00 93 1010.0
20260505091545 20 174 4.8 14.5 0.00 0.00 0.00 92 1007.5
20260505091510 20 189 3.2 12.9 0.00 0.00 0.00 93 1010.1
20260505090047 20 195 3.2 17.7 0.00 0.00 0.00 92 1007.6
20260505090024 20 171 1.6 17.7 0.00 0.00 0.00 92 1010.2
20260505084608 20 173 6.4 17.7 0.00 0.00 0.00 92 1010.2
20260505084554 20 162 8.0 19.3 0.00 0.00 0.00 92 1007.7
20260505083055 20 157 6.4 19.3 0.00 0.00 0.00 91 1007.8
20260505083006 20 196 6.4 17.7 0.00 0.00 0.00 92 1010.4
20260505081552 20 168 4.8 14.5 0.00 0.00 0.00 91 1008.2
20260505081504 20 212 4.8 12.9 0.00 0.00 0.00 92 1010.9
20260505080051 20 164 3.2 16.1 0.00 0.00 0.00 91 1008.2
20260505080004 20 164 1.6 14.5 0.00 0.00 0.00 91 1010.9
20260505074600 20 164 8.0 16.1 0.00 0.00 0.00 91 1011.2
20260505074544 20 176 8.0 17.7 0.00 0.00 0.00 91 1008.3
20260505073101 20 200 3.2 16.1 0.00 0.00 0.00 91 1011.4
20260505073044 20 201 4.8 16.1 0.00 0.00 0.00 90 1008.7
20260505071555 21 189 3.2 14.5 0.00 0.00 0.00 91 1011.5
20260505071549 21 170 3.2 14.5 0.00 0.00 0.00 90 1008.7
20260505070053 21 186 4.8 16.1 0.00 0.00 0.00 90 1011.8
20260505070046 21 201 4.8 17.7 0.00 0.00 0.00 90 1009.1
20260505064553 21 196 6.4 17.7 0.00 0.00 0.00 90 1011.8
20260505064549 21 145 4.8 19.3 0.00 0.00 0.00 89 1009.2
20260505063048 21 162 6.4 20.9 0.00 0.00 0.00 89 1012.0
20260505061549 21 180 3.2 14.5 0.00 0.00 0.00 88 1009.5
20260505060052 21 192 6.4 17.7 0.00 0.00 0.00 88 1009.6
20260505060048 21 167 4.8 16.1 0.00 0.00 0.00 89 1012.0
20260505054554 21 165 4.8 17.7 0.00 0.00 0.00 88 1009.7
20260505054552 21 115 6.4 17.7 0.00 0.00 0.00 88 1012.2
20260505053046 21 128 4.8 17.7 0.00 0.00 0.00 87 1009.8
20260505053041 21 150 6.4 14.5 0.00 0.00 0.00 88 1012.2
20260505051544 21 152 8.0 19.3 0.00 0.00 0.00 87 1009.6
20260505051539 21 163 9.7 22.5 0.00 0.00 0.00 87 1012.1
20260505041548 22 140 8.0 17.7 0.00 0.00 0.00 84 1009.6
20260505041533 22 120 6.4 17.7 0.00 0.00 0.00 85 1012.1
20260505040044 22 160 4.8 14.5 0.00 0.00 0.00 83 1009.6
20260505040035 22 160 6.4 12.9 0.00 0.00 0.00 83 1012.1
20260505034542 23 188 6.4 19.3 0.00 0.00 0.00 82 1009.5
20260505034532 23 188 6.4 17.7 0.00 0.00 0.00 82 1012.0
20260505033047 23 172 9.7 22.5 0.00 0.00 0.00 80 1009.3
20260505033037 23 172 8.0 22.5 0.00 0.00 0.00 81 1011.8
20260505031554 23 196 6.4 17.7 0.00 0.00 0.00 79 1009.3
20260505031539 23 196 8.0 17.7 0.00 0.00 0.00 79 1011.8
20260505030046 23 148 4.8 14.5 0.00 0.00 0.00 78 1009.3
20260505030030 23 148 6.4 16.1 0.00 0.00 0.00 78 1011.7
20260505024550 23 183 8.0 17.7 0.00 0.00 0.00 77 1009.4
20260505024544 23 183 8.0 16.1 0.00 0.00 0.00 77 1011.8
20260505023046 23 169 3.2 9.7 0.00 0.00 0.00 76 1009.3
20260505023039 23 169 3.2 9.7 0.00 0.00 0.00 76 1011.8
20260505021544 23 157 3.2 9.7 0.00 0.00 0.00 75 1009.1
20260505021527 23 157 3.2 9.7 0.00 0.00 0.00 75 1011.8
20260505020041 24 157 3.2 14.5 0.00 0.00 0.00 74 1008.8
20260505020027 24 157 3.2 11.3 0.00 0.00 0.00 75 1011.5
20260505014600 24 182 1.6 6.4 0.00 0.00 0.00 73 1008.6
20260505014535 24 182 1.6 6.4 0.00 0.00 0.00 73 1011.3
20260505013044 25 186 3.2 11.3 0.00 0.00 0.00 71 1008.6
20260505013025 25 186 4.8 9.7 0.00 0.00 0.00 72 1011.3
20260505011549 25 160 4.8 14.5 0.00 0.00 0.00 70 1008.6
20260505011524 25 186 3.2 14.5 0.00 0.00 0.00 71 1011.2
20260505010045 25 201 6.4 16.1 0.00 0.00 0.00 70 1008.6
20260505010024 25 206 6.4 16.1 0.00 0.00 0.00 70 1011.3
20260505004542 26 207 6.4 17.7 0.00 0.00 0.00 69 1008.6
20260505004525 26 139 6.4 14.5 0.00 0.00 0.00 69 1011.3
20260505003046 26 160 9.7 25.7 0.00 0.00 0.00 67 1008.2
20260505003023 26 197 9.7 24.1 0.00 0.00 0.00 68 1011.0
20260505001546 26 143 8.0 29.0 0.00 0.00 0.00 67 1008.3
20260505001523 26 157 11.3 24.1 0.00 0.00 0.00 68 1011.0
20260505000049 26 167 8.0 22.5 0.00 0.00 0.00 68 1008.4
20260505000022 26 167 4.8 20.9 0.00 0.00 0.00 68 1011.2
20260504234546 26 184 6.4 20.9 0.00 0.00 0.00 66 1008.7
20260504234521 26 158 6.4 17.7 0.00 0.00 0.00 67 1011.5
20260504233042 26 160 8.0 22.5 0.00 0.00 0.00 67 1008.8
20260504233019 26 139 8.0 22.5 0.00 0.00 0.00 67 1011.6
20260504231547 26 123 8.0 19.3 0.00 0.00 0.00 67 1009.0
20260504231517 26 240 8.0 19.3 0.00 0.00 0.00 67 1011.7
20260504230050 27 138 11.3 25.7 0.00 0.00 0.00 66 1009.3
20260504230015 27 128 12.9 25.7 0.00 0.00 0.00 67 1011.7
20260504224547 27 172 9.7 22.5 0.00 0.00 0.00 67 1009.6
20260504224512 27 155 11.3 24.1 0.00 0.00 0.00 67 1012.2
20260504223043 27 175 4.8 16.1 0.00 0.00 0.00 66 1009.7
20260504223012 27 174 4.8 14.5 0.00 0.00 0.00 67 1012.3
20260504221543 26 179 8.0 20.9 0.00 0.00 0.00 67 1009.8
20260504221512 26 198 6.4 19.3 0.00 0.00 0.00 67 1012.3
20260504220045 27 175 6.4 25.7 0.00 0.00 0.00 65 1009.9
20260504220011 27 159 6.4 24.1 0.00 0.00 0.00 66 1012.4
20260504214551 27 124 8.0 19.3 0.00 0.00 0.00 66 1009.7
20260504214508 27 158 9.7 17.7 0.00 0.00 0.00 67 1012.2
20260504213042 26 192 8.0 22.5 0.00 0.00 0.00 67 1010.0
20260504213005 26 167 8.0 19.3 0.00 0.00 0.00 68 1012.8
20260504211546 26 192 9.7 22.5 0.00 0.00 0.00 67 1010.5
20260504211508 26 176 8.0 20.9 0.00 0.00 0.00 68 1013.0
20260504210107 26 159 8.0 19.3 0.00 0.00 0.00 69 1013.2
20260504210055 26 113 4.8 22.5 0.00 0.00 0.00 68 1010.7
20260504204620 26 206 4.8 17.7 0.00 0.00 0.00 68 1013.6
20260504204607 26 206 6.4 22.5 0.00 0.00 0.00 68 1010.9
20260504203131 26 207 4.8 19.3 0.00 0.00 0.00 69 1013.9
20260504203104 26 153 6.4 19.3 0.00 0.00 0.00 68 1011.2
20260504201556 26 241 8.0 19.3 0.00 0.00 0.00 68 1014.0
20260504201546 26 169 9.7 24.1 0.00 0.00 0.00 68 1011.5
20260504200054 26 185 6.4 20.9 0.00 0.00 0.00 69 1014.4
20260504200049 26 196 6.4 22.5 0.00 0.00 0.00 68 1011.6
20260504194551 26 208 6.4 19.3 0.00 0.00 0.00 69 1014.5
20260504194542 26 207 4.8 19.3 0.00 0.00 0.00 69 1011.8
20260504193051 26 238 6.4 17.7 0.00 0.00 0.00 69 1014.7
20260504193043 26 229 4.8 20.9 0.00 0.00 0.00 69 1011.9
20260504191553 26 192 4.8 17.7 0.00 0.00 0.00 70 1014.9
20260504191542 26 202 4.8 19.3 0.00 0.00 0.00 69 1012.0
20260504190053 25 153 8.0 19.3 0.00 0.00 0.00 69 1012.1
20260504184546 25 180 6.4 24.1 0.00 0.00 0.00 68 1012.2
20260504183050 25 220 6.4 24.1 0.00 0.00 0.00 69 1012.7
20260504183043 26 198 9.7 20.9 0.00 0.00 0.00 69 1015.4
20260504181541 25 170 9.7 24.1 0.00 0.00 0.00 70 1012.6
20260504180053 24 194 11.3 20.9 0.00 0.00 0.00 72 1013.1
20260504180038 24 219 9.7 19.3 0.00 0.00 0.00 73 1015.7
20260504174541 25 216 8.0 19.3 0.00 0.00 0.00 71 1013.1
20260504174538 25 216 6.4 19.3 0.00 0.00 0.00 71 1015.7
20260504173051 24 188 6.4 17.7 0.00 0.00 0.00 72 1013.2
20260504173039 24 208 8.0 17.7 0.00 0.00 0.00 72 1015.9
20260504171545 24 183 6.4 22.5 0.00 0.00 0.00 72 1013.5
20260504171537 24 183 8.0 22.5 0.00 0.00 0.00 73 1016.3